Heute – Wetterdaten der letzten 3 Stunden im 5 Min. Intervall

Wetterdaten der letzten 3 Stunden im 5 Min. Intervall
DatumAussentemperaturLuftdruckLuftfeuchtigkeitWindstärke Regen
20.05.22, 19:30 16.3 °C 1015.8 hPa 88 % 5.0 km/h 4.4 mm
20.05.22, 19:25 16.6 °C 1015.5 hPa 88 % 0.0 km/h 4.4 mm
20.05.22, 19:20 16.9 °C 1015.3 hPa 88 % 1.8 km/h 4.4 mm
20.05.22, 19:15 17.2 °C 1015.1 hPa 87 % 5.0 km/h 4.4 mm
20.05.22, 19:10 17.3 °C 1015.0 hPa 87 % 3.2 km/h 4.4 mm
20.05.22, 19:05 17.6 °C 1014.9 hPa 87 % 10.1 km/h 4.4 mm
20.05.22, 19:00 17.9 °C 1014.8 hPa 87 % 10.1 km/h 4.4 mm
20.05.22, 18:55 18.2 °C 1014.5 hPa 88 % 0.0 km/h 4.4 mm
20.05.22, 18:50 18.3 °C 1014.2 hPa 88 % 13.7 km/h 4.4 mm
20.05.22, 18:45 18.4 °C 1014.1 hPa 90 % 11.9 km/h 4.4 mm
20.05.22, 18:40 18.6 °C 1014.0 hPa 92 % 6.8 km/h 4.4 mm
20.05.22, 18:35 18.7 °C 1013.8 hPa 92 % 0.0 km/h 4.4 mm
20.05.22, 18:30 18.7 °C 1013.7 hPa 93 % 11.9 km/h 4.4 mm
20.05.22, 18:25 18.6 °C 1013.5 hPa 93 % 5.0 km/h 4.4 mm
20.05.22, 18:20 18.2 °C 1013.4 hPa 93 % 0.0 km/h 4.4 mm
20.05.22, 18:15 17.9 °C 1013.5 hPa 93 % 3.2 km/h 4.4 mm
20.05.22, 18:10 17.9 °C 1013.6 hPa 92 % 8.6 km/h 4.4 mm
20.05.22, 18:05 17.9 °C 1013.5 hPa 92 % 5.0 km/h 4.4 mm
20.05.22, 17:55 17.9 °C 1013.5 hPa 92 % 6.8 km/h 4.4 mm
20.05.22, 17:50 18.1 °C 1013.7 hPa 92 % 3.2 km/h 4.2 mm
20.05.22, 17:45 18.2 °C 1013.8 hPa 91 % 5.0 km/h 4.0 mm
20.05.22, 17:40 18.6 °C 1013.8 hPa 89 % 0.0 km/h 4.0 mm
20.05.22, 17:35 19.1 °C 1013.9 hPa 87 % 10.1 km/h 3.4 mm
20.05.22, 17:30 19.3 °C 1013.8 hPa 86 % 3.2 km/h 3.2 mm
20.05.22, 17:25 19.4 °C 1013.8 hPa 86 % 6.8 km/h 3.2 mm
20.05.22, 17:20 19.6 °C 1013.5 hPa 86 % 6.8 km/h 3.2 mm
20.05.22, 17:15 19.8 °C 1013.7 hPa 86 % 8.6 km/h 3.2 mm
20.05.22, 17:10 19.9 °C 1013.5 hPa 85 % 11.9 km/h 3.2 mm
20.05.22, 17:05 20.2 °C 1013.3 hPa 88 % 1.8 km/h 3.2 mm
20.05.22, 16:55 20.3 °C 1012.9 hPa 88 % 3.2 km/h 3.2 mm
20.05.22, 16:50 20.3 °C 1013.2 hPa 87 % 3.2 km/h 3.2 mm
20.05.22, 16:45 20.3 °C 1013.2 hPa 87 % 1.8 km/h 3.0 mm
20.05.22, 16:40 20.4 °C 1013.6 hPa 88 % 0.0 km/h 3.0 mm
20.05.22, 16:35 20.6 °C 1013.5 hPa 87 % 0.0 km/h 3.0 mm